When you browse on this site, cookies collect data to enhance your experience and personalize the content and advertising you see.
Visit our Privacy Policy to learn more. By continuing to use the site, you agree to this use of cookies and data.
  • In United Kingdom
  • List of Countries
  • For 7 days
  • Water Temperature
  • Weather Map
  • Weather Widgets
  • user-avatar
    Login

    Hourly Weather Jaworowka

    Today, 16 October, Wednesday

    Time Temperature Precipitation Wind Pressure Humidity
    00:00 +14°C° 0 mm 4 mps 746 mmHg 69%
    01:00 +14°C° 0 mm 4 mps 746 mmHg 70%
    02:00 +13°C° 0 mm 4 mps 746 mmHg 71%
    03:00 +13°C° 0 mm 4 mps 746 mmHg 71%
    04:00 +13°C° 0 mm 4 mps 746 mmHg 72%
    05:00 +12°C° 0 mm 4 mps 745 mmHg 73%
    06:00 +13°C° 0 mm 4 mps 745 mmHg 71%
    07:00 +13°C° 0 mm 4 mps 745 mmHg 70%
    08:00 +13°C° 0 mm 4 mps 745 mmHg 69%
    09:00 +15°C° 0 mm 5 mps 745 mmHg 64%
    10:00 +16°C° 0 mm 5 mps 745 mmHg 60%
    11:00 +19°C° 0 mm 6 mps 746 mmHg 55%
    12:00 +20°C° 0 mm 6 mps 746 mmHg 53%
    13:00 +21°C° 0 mm 6 mps 746 mmHg 51%
    14:00 +22°C° 0 mm 6 mps 746 mmHg 48%
    15:00 +21°C° 0 mm 5 mps 746 mmHg 55%
    16:00 +20°C° 0 mm 4 mps 746 mmHg 61%
    17:00 +19°C° 0 mm 3 mps 746 mmHg 68%
    18:00 +18°C° 0 mm 3 mps 746 mmHg 71%
    19:00 +18°C° 0 mm 4 mps 747 mmHg 74%
    20:00 +17°C° 0 mm 4 mps 747 mmHg 77%
    21:00 +15°C° 0 mm 4 mps 748 mmHg 80%
    22:00 +14°C° 0 mm 3 mps 748 mmHg 83%
    23:00 +13°C° 0 mm 3 mps 748 mmHg 86%

    Tomorrow, 17 October, Thursday

    Time Temperature Precipitation Wind Pressure Humidity
    00:00 +12°C° 0 mm 3 mps 749 mmHg 86%
    01:00 +12°C° 0 mm 3 mps 749 mmHg 86%
    02:00 +11°C° 0 mm 3 mps 749 mmHg 87%
    03:00 +11°C° 0 mm 3 mps 749 mmHg 87%
    04:00 +10°C° 0 mm 3 mps 749 mmHg 87%
    05:00 +10°C° 0 mm 3 mps 749 mmHg 87%
    06:00 +10°C° 0 mm 3 mps 749 mmHg 86%
    07:00 +10°C° 0 mm 3 mps 750 mmHg 86%
    08:00 +10°C° 0 mm 3 mps 750 mmHg 85%
    09:00 +12°C° 0 mm 4 mps 750 mmHg 77%
    10:00 +13°C° 0 mm 4 mps 750 mmHg 69%
    11:00 +15°C° 0 mm 4 mps 751 mmHg 61%
    12:00 +17°C° 0 mm 4 mps 750 mmHg 58%
    13:00 +18°C° 0 mm 4 mps 750 mmHg 55%
    14:00 +19°C° 0 mm 4 mps 750 mmHg 52%
    15:00 +18°C° 0 mm 3 mps 750 mmHg 56%
    16:00 +17°C° 0 mm 3 mps 750 mmHg 60%
    17:00 +17°C° 0 mm 2 mps 750 mmHg 63%
    18:00 +16°C° 0 mm 2 mps 750 mmHg 65%
    19:00 +15°C° 0 mm 2 mps 750 mmHg 68%
    20:00 +15°C° 0 mm 2 mps 750 mmHg 70%
    21:00 +14°C° 0 mm 2 mps 750 mmHg 71%
    22:00 +14°C° 0 mm 2 mps 750 mmHg 72%
    23:00 +14°C° 0 mm 2 mps 750 mmHg 73%

    Day after tomorrow, 18 October, Friday

    Time Temperature Precipitation Wind Pressure Humidity
    00:00 +13°C° 0 mm 2 mps 750 mmHg 74%
    01:00 +13°C° 0 mm 2 mps 750 mmHg 74%
    02:00 +13°C° 0 mm 2 mps 750 mmHg 75%
    03:00 +13°C° 0 mm 2 mps 750 mmHg 75%
    04:00 +13°C° 0 mm 2 mps 750 mmHg 76%
    05:00 +13°C° 0 mm 2 mps 750 mmHg 76%
    06:00 +13°C° 0 mm 2 mps 750 mmHg 78%
    07:00 +13°C° 0 mm 2 mps 750 mmHg 79%
    08:00 +13°C° 0 mm 2 mps 750 mmHg 81%
    09:00 +14°C° 0 mm 2 mps 750 mmHg 78%
    10:00 +15°C° 0 mm 2 mps 750 mmHg 75%
    11:00 +16°C° 0 mm 2 mps 750 mmHg 72%
    12:00 +17°C° 0 mm 2 mps 750 mmHg 69%
    13:00 +18°C° 0 mm 2 mps 750 mmHg 65%
    14:00 +19°C° 0 mm 2 mps 750 mmHg 61%
    15:00 +19°C° 0 mm 2 mps 749 mmHg 64%
    16:00 +19°C° 0 mm 1 mps 749 mmHg 67%
    17:00 +18°C° 0 mm 1 mps 749 mmHg 70%
    18:00 +16°C° 0 mm 1 mps 749 mmHg 72%
    19:00 +16°C° 0 mm 1 mps 749 mmHg 74%
    20:00 +15°C° 0 mm 1 mps 749 mmHg 76%
    21:00 +15°C° 0 mm 1 mps 749 mmHg 77%
    22:00 +15°C° 0 mm 1 mps 749 mmHg 77%
    23:00 +14°C° 0 mm 1 mps 750 mmHg 78%

    19 October, Saturday

    Time Temperature Precipitation Wind Pressure Humidity
    00:00 +14°C° 0 mm 1 mps 749 mmHg 79%
    01:00 +14°C° 0 mm 1 mps 749 mmHg 80%
    02:00 +14°C° 0 mm 1 mps 749 mmHg 80%
    03:00 +14°C° 0 mm 1 mps 749 mmHg 81%
    04:00 +13°C° 0 mm 1 mps 749 mmHg 83%
    05:00 +13°C° 0 mm 1 mps 749 mmHg 84%
    06:00 +13°C° 0 mm 2 mps 749 mmHg 85%
    07:00 +13°C° 0 mm 2 mps 749 mmHg 85%
    08:00 +13°C° 0 mm 2 mps 749 mmHg 86%
    09:00 +15°C° 0 mm 2 mps 749 mmHg 79%
    10:00 +17°C° 0 mm 3 mps 749 mmHg 72%
    11:00 +18°C° 0 mm 3 mps 749 mmHg 65%
    12:00 +19°C° 0 mm 4 mps 749 mmHg 61%
    13:00 +21°C° 0 mm 4 mps 748 mmHg 57%
    14:00 +22°C° 0 mm 4 mps 748 mmHg 52%
    15:00 +21°C° 0 mm 4 mps 748 mmHg 55%
    16:00 +20°C° 0 mm 3 mps 747 mmHg 59%
    17:00 +19°C° 0 mm 3 mps 747 mmHg 62%
    18:00 +18°C° 0 mm 3 mps 747 mmHg 64%
    19:00 +17°C° 0 mm 3 mps 747 mmHg 67%
    20:00 +16°C° 0 mm 3 mps 747 mmHg 69%
    21:00 +16°C° 0 mm 3 mps 747 mmHg 71%
    22:00 +14°C° 0 mm 3 mps 747 mmHg 72%
    23:00 +14°C° 0 mm 3 mps 747 mmHg 73%

    20 October, Sunday

    Time Temperature Precipitation Wind Pressure Humidity
    00:00 +14°C° 0 mm 4 mps 747 mmHg 73%
    01:00 +14°C° 0 mm 4 mps 747 mmHg 72%
    02:00 +14°C° 0 mm 4 mps 747 mmHg 71%
    03:00 +14°C° 0 mm 4 mps 747 mmHg 70%
    04:00 +14°C° 0 mm 4 mps 747 mmHg 70%
    05:00 +14°C° 0 mm 4 mps 747 mmHg 69%
    06:00 +14°C° 0 mm 4 mps 747 mmHg 69%
    07:00 +14°C° 0 mm 4 mps 747 mmHg 70%
    08:00 +14°C° 0 mm 3 mps 747 mmHg 70%
    09:00 +15°C° 0 mm 4 mps 748 mmHg 66%
    10:00 +17°C° 0 mm 4 mps 748 mmHg 62%
    11:00 +19°C° 0 mm 4 mps 748 mmHg 59%
    12:00 +19°C° 0 mm 4 mps 748 mmHg 57%
    13:00 +20°C° 0 mm 4 mps 749 mmHg 55%
    14:00 +21°C° 0 mm 3 mps 749 mmHg 53%
    15:00 +20°C° 0 mm 3 mps 749 mmHg 57%
    16:00 +19°C° 0 mm 2 mps 749 mmHg 61%
    17:00 +18°C° 0 mm 2 mps 749 mmHg 64%
    18:00 +17°C° 0 mm 2 mps 749 mmHg 66%
    19:00 +17°C° 0 mm 2 mps 750 mmHg 69%
    20:00 +16°C° 0 mm 2 mps 750 mmHg 71%
    21:00 +15°C° 0 mm 1 mps 750 mmHg 73%
    22:00 +15°C° 0 mm 1 mps 750 mmHg 76%
    23:00 +14°C° 0 mm 1 mps 751 mmHg 79%

    21 October, Monday

    Time Temperature Precipitation Wind Pressure Humidity
    00:00 +14°C° 0 mm 1 mps 751 mmHg 80%
    01:00 +14°C° 0 mm 1 mps 751 mmHg 82%
    02:00 +14°C° 0 mm 1 mps 751 mmHg 83%
    03:00 +13°C° 0 mm 1 mps 752 mmHg 84%
    04:00 +12°C° 0 mm 0 mps 752 mmHg 86%
    05:00 +11°C° 0 mm 0 mps 752 mmHg 87%
    06:00 +12°C° 0 mm 0 mps 752 mmHg 86%
    07:00 +13°C° 0 mm 1 mps 752 mmHg 86%
    08:00 +13°C° 0 mm 1 mps 752 mmHg 85%
    09:00 +14°C° 0 mm 1 mps 752 mmHg 79%
    10:00 +16°C° 0 mm 1 mps 752 mmHg 72%
    11:00 +19°C° 0 mm 1 mps 752 mmHg 66%
    12:00 +20°C° 0 mm 1 mps 752 mmHg 63%
    13:00 +20°C° 0 mm 1 mps 752 mmHg 60%
    14:00 +20°C° 0 mm 2 mps 752 mmHg 57%
    15:00 +20°C° 0 mm 2 mps 752 mmHg 61%
    16:00 +19°C° 0 mm 2 mps 752 mmHg 65%
    17:00 +18°C° 0 mm 2 mps 752 mmHg 68%
    18:00 +17°C° 0 mm 2 mps 752 mmHg 70%
    19:00 +16°C° 0 mm 2 mps 752 mmHg 73%
    20:00 +14°C° 0 mm 3 mps 752 mmHg 75%
    21:00 +14°C° 0 mm 3 mps 752 mmHg 76%
    22:00 +14°C° 0 mm 3 mps 752 mmHg 78%
    23:00 +13°C° 0 mm 3 mps 752 mmHg 79%
    Show more